AO-07 1 07530U 74089B 20324.85403786 -.00000039 00000-0 37031-4 0 9996 2 07530 101.8239 293.8460 0012515 64.9562 3.3984 12.53646085105709 UO-11 1 14781U 84021B 20324.25370263 .00000135 00000-0 22608-4 0 9996 2 14781 097.5899 328.5255 0009725 058.2632 301.9529 14.83211567954778 LO-19 1 20442U 90005G 20324.38516359 .00000024 00000-0 25291-4 0 9996 2 20442 98.7120 272.2878 0012759 61.4397 298.8069 14.32966898610804 HUBBLE 1 20580U 90037B 20324.85606596 .00000783 00000-0 36655-4 0 9997 2 20580 28.4722 11.7605 0002802 332.3421 27.7007 15.09479421479557 MET-2/21 1 22782U 93055A 20324.20360348 .00000023 00000-0 72886-5 0 9991 2 22782 082.5469 110.7825 0022882 158.4497 014.5884 13.83830122374444 AO-27 1 22825U 93061C 20324.27551427 -.00000012 00000-0 13315-4 0 9993 2 22825 098.9256 330.6464 0007443 288.9953 071.0421 14.30097858415941 IO-26 1 22826U 93061D 20324.01573081 -.00000014 00000-0 12768-4 0 9999 2 22826 98.9197 330.3100 0007925 275.9047 84.1231 14.30434784416392 FO-29 1 24278U 96046B 20324.22758885 -.00000042 00000-0 -44097-5 0 9991 2 24278 098.5889 053.8418 0349840 334.2880 024.1221 13.53100445197811 NOAA-15 1 25338U 98030A 20324.78306194 .00000023 00000-0 28350-4 0 9997 2 25338 98.7045 348.9512 0010675 165.6964 194.4519 14.25999257171368 GO-32 1 25397U 98043D 20324.13091951 .00000003 00000-0 20868-4 0 9991 2 25397 098.7452 264.5534 0001297 022.0075 338.1159 14.23694802161565 ISS 1 25544U 98067A 20324.95087704 .00006279 00000-0 12190-3 0 9991 2 25544 51.6435 297.7320 0001726 50.7438 62.3357 15.49027989256169 NO-44 1 26931U 01043C 20324.79389065 -.00000026 00000-0 21735-4 0 9998 2 26931 67.0505 101.5148 0006998 275.1152 84.9150 14.30595057999363 SO-50 1 27607U 02058C 20324.08689960 .00000037 00000-0 25675-4 0 9993 2 27607 64.5556 261.5833 0031274 119.2408 241.1828 14.75679085963674 CO-55 1 27844U 03031E 20324.27407834 .00000057 00000-0 45332-4 0 9991 2 27844 98.6823 329.6767 0009342 332.9781 27.0909 14.22268779902145 CO-57 1 27848U 03031J 20324.27551875 .00000037 00000-0 36849-4 0 9991 2 27848 98.6887 330.2451 0009437 346.4069 13.6853 14.21851590901978 RS-22 1 27939U 03042A 20324.70628553 .00000228 00000-0 49487-4 0 9994 2 27939 98.1131 97.6735 0012167 218.0138 142.0216 14.66907309916773 NOAA-18 1 28654U 05018A 20324.78505149 .00000081 00000-0 68196-4 0 9992 2 28654 99.0248 22.5186 0014831 150.7455 209.4549 14.12556721798930 CO-58 1 28895U 05043F 20324.37797677 .00000188 00000-0 44961-4 0 9993 2 28895 98.0318 96.6018 0017510 149.0143 211.2096 14.63825141803501 Falconsat-3 1 30776U 07006E 20324.41899938 .00004872 00000-0 12550-3 0 9995 2 30776 35.4358 8.0291 0002496 170.9427 189.1345 15.38680079760713 CO-65 1 32785U 08021C 20324.88538673 .00000336 00000-0 41752-4 0 9990 2 32785 97.5889 306.1958 0012580 344.7763 15.3074 14.88557361681064 AAUSAT2 1 32788U 08021F 20323.98274709 .00000321 00000-0 34085-4 0 9995 2 32788 97.4959 321.6626 0010221 255.5840 104.4247 14.95233160682501 DO-64 1 32789U 08021G 20324.08405090 .00001456 00000-0 98066-4 0 9996 2 32789 97.4017 1.3716 0013003 140.1348 220.0838 15.08125586685211 CO-66 1 32791U 08021J 20323.94521660 .00000417 00000-0 47336-4 0 9995 2 32791 97.5529 311.3764 0012109 312.6104 47.4093 14.91169861681486 RS-30 1 32953U 08025A 20324.64949325 .00000028 00000-0 12906-3 0 9991 2 32953 82.5034 181.4063 0019881 74.3313 285.9959 12.43098912566910 PRISM 1 33493U 09002B 20324.84708362 .00000566 00000-0 54444-4 0 9994 2 33493 98.1607 271.7178 0013949 261.3824 98.5816 14.97241732642964 NOAA-19 1 33591U 09005A 20324.80032754 .00000006 00000-0 28516-4 0 9997 2 33591 99.1950 334.1913 0014025 4.3846 355.7445 14.12439401607327 TISAT-1 1 36799U 10035E 20324.75321106 .00000402 00000-0 46245-4 0 9990 2 36799 98.2021 141.1221 0012267 175.3683 184.7650 14.91487752562272 JUGNU 1 37839U 11058B 20324.60013877 .00000314 00000-0 25448-4 0 9993 2 37839 19.9621 61.8795 0018861 299.3426 89.2749 14.12695184470860 SRMSAT 1 37841U 11058D 20324.14790128 .00000264 00000-0 -80301-7 0 9993 2 37841 19.9709 132.1514 0011858 143.1422 13.0713 14.10678187470130 AO-71 1 37854U 11061E 20324.41074286 .00001608 00000-0 87400-4 0 9997 2 37854 101.7147 135.7940 0157077 320.8559 38.1374 15.07711735495278 HRBE 1 37855U 11061F 20324.45670628 .00001324 00000-0 72274-4 0 9992 2 37855 101.7277 132.9410 0169625 334.7869 24.5133 15.06743713495018 HORYU-2 1 38340U 12025D 20324.73565526 .00000229 00000-0 41262-4 0 9990 2 38340 98.2619 21.8801 0010215 264.2677 95.7367 14.75921240457860 RS-40 1 38735U 12041C 20324.20363783 .00000002 00000-0 -57489-4 0 9997 2 38735 82.4742 264.1556 0016326 181.2649 178.8392 12.42580362377078 BEESAT-3 1 39135U 13015F 20323.96200137 .00001525 00000-0 82773-4 0 9993 2 39135 64.8652 162.3009 0023392 216.4134 143.5403 15.18536393419069 BEESAT-2 1 39136U 13015G 20323.93947752 .00001310 00000-0 73244-4 0 9997 2 39136 64.8752 167.9206 0033956 264.7229 95.0022 15.17944165418953 ZACUBE-1 1 39417U 13066B 20324.72827893 .00000284 00000-0 41641-4 0 9991 2 39417 97.5753 314.1966 0059937 127.8483 232.8175 14.81356151378021 TRITON-1 1 39427U 13066M 20324.81285983 .00000306 00000-0 56817-4 0 9996 2 39427 97.7477 277.2788 0112424 301.6481 57.3797 14.68091866374647 GOMX-1 1 39430U 13066Q 20324.89031222 .00000363 00000-0 74088-4 0 9996 2 39430 97.8024 254.1033 0152078 55.1897 306.3512 14.59470185372474 LO-74 1 39440U 13066AA 20323.91485959 .00000231 00000-0 39043-4 0 9995 2 39440 097.6496 298.0293 0079458 197.8008 162.0417 14.76092897375360 AO-73 1 39444U 13066AE 20323.96085343 .00000377 00000-0 52105-4 0 9992 2 39444 97.5678 315.7766 0059110 121.9349 238.7632 14.82225970376847 SPROUT 1 39770U 14029E 20324.76914126 .00001022 00000-0 11742-3 0 9992 2 39770 97.9056 70.4842 0009042 170.1031 190.0347 14.87979948352153 DUCHIFAT-1 1 40021U 14033M 20324.77742816 .00000678 00000-0 74310-4 0 9991 2 40021 97.9529 257.0339 0013729 131.0086 229.2321 14.91048321349033 NANOSATCBR1 1 40024U 14033Q 20324.08206807 .00000578 00000-0 65522-4 0 9997 2 40024 97.9351 252.1903 0012957 137.5030 222.7192 14.90194756348782 DTUSAT-2 1 40030U 14033W 20324.34046056 .00000420 00000-0 50840-4 0 9994 2 40030 97.9061 245.7634 0012621 140.4755 219.7385 14.88806890348563 EO-80 1 40032U 14033Y 20324.76776431 .00000351 00000-0 43527-4 0 9996 2 40032 97.9069 246.1936 0012618 139.9687 220.2462 14.88759570348617 ANTELSAT 1 40034U 14033AA 20324.14620300 .00000278 00000-0 48308-4 0 9993 2 40034 97.6945 172.2836 0057645 217.8040 141.9114 14.74333574345207 VELOX-1 1 40057U 14034E 20324.81226731 .00000394 00000-0 62366-4 0 9992 2 40057 98.3013 106.2503 0010995 15.1732 344.9805 14.77977539344577 DAURIA DX 1 1 40071U 14037C 20324.80233993 .00000148 00000-0 26411-4 0 9996 2 40071 98.4600 151.8474 0008590 8.1237 352.0110 14.81413276344251 HODOYOSHI-1 1 40299U 14070B 20324.79480411 .00000928 00000-0 40797-4 0 9991 2 40299 97.3101 37.8290 0013433 15.6910 100.7897 15.24278496335474 CHUBUSAT-1 1 40300U 14070C 20324.77568303 .00000911 00000-0 41796-4 0 9991 2 40300 97.2717 29.1641 0020703 29.8838 85.9900 15.22736238335141 QSAT-EOS 1 40301U 14070D 20324.81411711 .00002550 00000-0 96682-4 0 9992 2 40301 97.2795 35.6327 0024856 1.6417 119.5703 15.27504224335648 FIREBIRD FU3 1 40377U 15003B 20324.05865527 .00004383 00000-0 16656-3 0 9994 2 40377 99.0849 55.8520 0122367 157.1283 203.5463 15.20776348320804 FIREBIRD FU4 1 40378U 15003C 20324.83054402 .00004397 00000-0 16678-3 0 9992 2 40378 99.0853 56.8921 0122555 154.4118 206.3248 15.20811230320927 GRIFEX 1 40379U 15003D 20324.78873830 .00003052 00000-0 12843-3 0 9998 2 40379 99.0879 47.8072 0131564 182.5232 177.5349 15.16905405320397 NO-84 1 40654U 15025D 20323.36166417 .00019594 00000-0 20210-3 0 1028 2 40654 54.9844 309.2733 0101050 227.5901 131.6447 15.58647283192989 DEORBITSAIL 1 40719U 15032E 20323.95578761 .00000537 00000-0 82834-4 0 9994 2 40719 97.8498 208.6243 0017640 69.4947 290.8155 14.77128580288900 NUDT-PHONESAT 1 40900U 15049B 20324.70016291 .00003257 00000-0 13390-3 0 9995 2 40900 97.4276 334.3530 0013115 150.8165 320.6336 15.24808340286844 XW-2A 1 40903U 15049E 20324.79004384 .00003073 00000-0 69656-4 0 9990 2 40903 97.2681 13.7321 0014539 62.1319 49.5224 15.43768522290439 XW-2C 1 40906U 15049H 20324.87458515 .00001076 00000-0 58919-4 0 9992 2 40906 97.4811 323.9939 0014282 188.5082 289.1964 15.16284955285806 XW-2D 1 40907U 15049J 20324.84389068 .00000919 00000-0 50461-4 0 9995 2 40907 97.4802 323.6990 0013612 184.7388 296.3061 15.16543123285829 LILACSAT-2 1 40908U 15049K 20324.81301970 .00000460 00000-0 28754-4 0 9990 2 40908 97.4975 321.8084 0015103 198.9573 239.7779 15.14167625285504 XW-2E 1 40909U 15049L 20324.85936523 .00001600 00000-0 80100-4 0 9993 2 40909 97.4659 327.4380 0013372 173.6035 306.0179 15.18776513286110 XW-2F 1 40910U 15049M 20324.86020899 .00001611 00000-0 81756-4 0 9996 2 40910 97.4708 326.5163 0014403 173.7201 305.9058 15.18283402285919 XW-2B 1 40911U 15049N 20324.82764771 .00000851 00000-0 47089-4 0 9993 2 40911 97.4808 324.3808 0013531 185.9562 251.8173 15.16465369285716 DCBB 1 40912U 15049P 20324.87160019 .00001763 00000-0 83119-4 0 9991 2 40912 97.4476 330.8107 0015260 149.6431 330.9644 15.20719620286333 TW-1C 1 40926U 15051B 20324.80798322 .00063085 00000-0 40886-3 0 9994 2 40926 97.0613 18.2551 0003985 195.9410 275.6412 15.75839329291398 TW-1A 1 40928U 15051D 20324.86272233 .00004681 00000-0 10582-3 0 9997 2 40928 97.0970 348.8878 0009778 351.9430 181.6326 15.43603142289330 IO-86 1 40931U 15052B 20321.58799432 .00000847 00000-0 28748-4 0 9997 2 40931 006.0037 330.5210 0013763 270.4142 089.4187 14.76651600277783 LQSat 1 40958U 15057A 20324.12044123 .00000043 00000-0 14230-4 0 9993 2 40958 97.8342 22.3029 0018439 17.2609 342.9222 14.73139501275270 ATHENOXAT-1 1 41168U 15077C 20324.72819276 .00002689 00000-0 10410-3 0 9997 2 41168 14.9897 1.8706 0011213 130.5182 229.6116 15.14779992272912 ChubuSat-2 1 41338U 16012B 20324.65008649 .00000482 00000-0 30664-4 0 9995 2 41338 31.0038 79.8588 0013704 215.0252 144.9482 15.00370876261067 ChubuSat-3 1 41339U 16012C 20324.62798335 .00000486 00000-0 30838-4 0 9998 2 41339 31.0116 77.4512 0013220 223.1188 136.8443 15.00530324261059 Horyu-4 1 41340U 16012D 20324.58660415 .00000743 00000-0 49208-4 0 9999 2 41340 31.0061 63.7657 0013893 249.3903 110.5243 15.01626869261215 OUFTI-1 1 41458U 16025C 20324.31379451 .00001532 00000-0 78743-4 0 9994 2 41458 98.1200 83.2655 0162771 48.4854 313.0208 15.07448850250804 e-st@r-II 1 41459U 16025D 20324.73818884 .00002301 00000-0 11712-3 0 9996 2 41459 98.1199 82.9944 0164185 49.4419 312.0975 15.06972150250824 AAUSAT4 1 41460U 16025E 20324.82694656 .00001986 00000-0 98333-4 0 9990 2 41460 98.1167 86.0030 0152550 35.9671 325.1693 15.09505619251070 LO-87 1 41557U 16033B 20324.84656528 .00002180 00000-0 81324-4 0 9993 2 41557 97.4013 54.0730 0011676 256.4544 219.9271 15.28452022249500 NuSat2 1 41558U 16033C 20324.87097438 .00002397 00000-0 83838-4 0 9998 2 41558 97.4089 57.0036 0010789 251.3941 229.7417 15.30484426249658 Lapan A3 1 41603U 16040E 20324.71748440 .00000322 00000-0 18047-4 0 9992 2 41603 97.2887 13.2218 0014025 25.8830 70.0544 15.19903904244722 Swayam 1 41607U 16040J 20323.91347688 .00002252 00000-0 93626-4 0 9996 2 41607 97.2986 19.5171 0013026 9.8122 350.3368 15.24731393244959 Pratham 1 41783U 16059A 20324.10277090 .00000084 00000-0 25424-4 0 9994 2 41783 97.9968 15.0521 0033453 186.9134 173.1612 14.63087849221496 AlSat 1N 1 41789U 16059G 20324.73806657 .00000132 00000-0 33811-4 0 9999 2 41789 98.0012 18.8544 0028525 170.9757 189.1964 14.64359798221750 ScatSat 1 41790U 16059H 20324.84091690 .00000048 00000-0 23574-4 0 9997 2 41790 98.3980 1.5341 0005611 147.8846 212.2682 14.50794591219757 TY-1 1 41844U 16066D 20324.81732015 .00001307 00000-0 54892-4 0 9991 2 41844 97.4025 331.2706 0015631 150.7000 311.3283 15.25142209223943 Pegasus-1 1 41846U 16066F 20324.12807475 .00000380 00000-0 66750-4 0 9996 2 41846 098.6423 015.6565 0367416 132.3942 230.8965 14.37867009211198 CAS-2T 1 41847U 16066G 20324.15519951 .00000122 00000-0 27932-4 0 9992 2 41847 98.6341 16.0729 0366428 127.7407 235.7586 14.38112863211657 EO-88 1 42017U 17008BX 20324.42591345 .00002428 00000-0 94306-4 0 9996 2 42017 97.3435 29.6244 0007501 125.8331 234.3606 15.27010551209192 CAS-4B 1 42759U 17034B 20324.88497913 .00000546 00000-0 46467-4 0 9998 2 42759 43.0186 252.9969 0011416 290.9393 175.6016 15.09955543189461 CAS-4A 1 42761U 17034D 20324.82053745 .00000540 00000-0 46024-4 0 9999 2 42761 43.0181 252.5484 0011878 290.9565 172.2841 15.10035010189458 UCLSat 1 42765U 17036A 20324.14349975 .00001950 00000-0 83460-4 0 9994 2 42765 97.2811 14.0923 0010734 192.2929 167.8049 15.23930453189549 NIUSat 1 42766U 17036B 20324.11664480 .00001388 00000-0 63546-4 0 9991 2 42766 97.2811 11.1065 0014959 190.2858 169.8075 15.22030117189219 LituanicaSAT 2 1 42768U 17036D 20324.11917655 .00003173 00000-0 13067-3 0 9994 2 42768 97.2876 14.3157 0014287 183.6566 176.4570 15.24743799189409 Aalto 1 1 42775U 17036L 20324.09026650 .00001120 00000-0 51787-4 0 9997 2 42775 97.2787 11.4055 0013425 188.8989 171.2011 15.22099325189198 URSA MAIOR 1 42776U 17036M 20324.38860906 .00001291 00000-0 58888-4 0 9998 2 42776 97.2800 12.0488 0013260 187.3060 172.7986 15.22310131189258 Max Valier Sat 1 42778U 17036P 20324.09601219 .00001396 00000-0 62333-4 0 9994 2 42778 97.2859 13.3116 0011796 190.2164 169.8835 15.22928660189269 Pegasus 1 42784U 17036V 20324.13559678 .00001709 00000-0 74193-4 0 9992 2 42784 97.2819 13.7099 0011242 194.2843 165.8078 15.23590470189327 NUDATSat 1 42787U 17036Y 20324.37975458 .00002833 00000-0 11590-3 0 9999 2 42787 97.2859 15.7237 0010541 187.3920 172.7162 15.25093800189306 SUCHAI 1 1 42788U 17036Z 20324.36360073 .00002072 00000-0 87770-4 0 9999 2 42788 97.2827 14.6713 0010889 190.6017 169.4992 15.24213231189471 SKCUBE 1 42789U 17036AA 20324.09877244 .00001918 00000-0 81906-4 0 9996 2 42789 097.2823 014.2155 0010719 192.1921 167.9059 15.24022517189345 VZLUSAT 1 1 42790U 17036AB 20324.10812239 .00002645 00000-0 10848-3 0 9997 2 42790 097.2849 015.4508 0010331 188.4952 171.6113 15.25068845189418 VENTA 1 1 42791U 17036AC 20324.14084560 .00001910 00000-0 81650-4 0 9994 2 42791 097.2820 014.2888 0010367 192.4507 167.6476 15.23997408189349 Robusta 1B 1 42792U 17036AD 20324.09820259 .00001941 00000-0 82380-4 0 9997 2 42792 97.2826 14.5168 0010301 192.0506 168.0487 15.24229090189379 D-SAT 1 42794U 17036AF 20324.03265908 .00000451 00000-0 44333-4 0 9998 2 42794 097.4798 348.9270 0125300 208.3395 151.0971 14.91364335185698 TechnoSat 1 42829U 17042E 20324.63113938 .00000134 00000-0 18767-4 0 9995 2 42829 97.4954 198.9154 0015428 123.9338 236.3350 14.91162520182410 QIKCOM-1 1 42983U 98067NF 20324.49877582 .00007165 00000-0 82794-4 0 9990 2 42983 51.6375 243.1875 0002486 279.7819 80.2895 15.63106614174522 AO-91 1 43017U 17073E 20324.31594093 .00000890 00000-0 74992-4 0 9990 2 43017 97.7159 230.5198 0254812 265.6977 91.5083 14.79151937162054 EcAMSat 1 43019U 98067NG 20324.42380745 .00015485 00000-0 13348-3 0 9996 2 43019 51.6398 223.2772 0002129 256.0084 104.0676 15.69481161257106 PICSAT 1 43132U 18004X 20324.14255881 .00002188 00000-0 90922-4 0 9996 2 43132 097.4329 034.4453 0008331 222.0649 137.9950 15.24864604158628 AO-92 1 43137U 18004AC 20324.14928944 .00001635 00000-0 69471-4 0 9999 2 43137 97.4313 34.1604 0007887 224.6803 135.3799 15.24468308158608 TianYi 2 1 43155U 18008A 20324.83133294 .00000907 00000-0 56594-4 0 9998 2 43155 97.4310 29.8411 0016919 337.7061 130.1169 15.11879952156395 Zhou Enlai 1 43156U 18008B 20324.84178154 .00001249 00000-0 77477-4 0 9997 2 43156 97.4359 29.6898 0013907 338.0178 133.6918 15.11452084156341 TianYi 6 1 43158U 18008D 20324.77690466 .00001153 00000-0 72806-4 0 9991 2 43158 97.4299 28.4877 0013248 336.6083 139.9916 15.10958133156271 S-Net D 1 43186U 18014G 20324.73812710 .00000250 00000-0 26818-4 0 9992 2 43186 97.6846 229.9620 0012173 67.2689 292.9818 14.96887685152926 S-Net B 1 43187U 18014H 20324.73798233 .00000250 00000-0 26800-4 0 9997 2 43187 97.6844 229.9355 0012181 67.2174 293.0333 14.96887336152925 S-Net A 1 43188U 18014J 20324.73786711 .00000220 00000-0 24179-4 0 9990 2 43188 97.6848 229.9712 0012169 67.3153 292.9354 14.96886932152923 S-Net C 1 43189U 18014K 20324.73835794 .00000258 00000-0 27488-4 0 9994 2 43189 97.6844 229.9302 0012179 67.2604 292.9903 14.96886375151476 FMN 1 1 43192U 18015A 20324.88312951 .00003389 00000-0 13310-3 0 9996 2 43192 97.4633 93.8824 0014060 261.8812 216.7740 15.26324976155605 Shaonian Xing 1 43199U 18015H 20324.86515509 .00002660 00000-0 10514-3 0 9999 2 43199 97.4423 91.7134 0014962 272.0154 188.1838 15.26295015155661 UBAKUSAT 1 43467U 98067NQ 20324.71286442 .00130188 17495-4 38953-3 0 9991 2 43467 51.6288 196.0316 0003772 190.5852 169.5075 15.92122961144674 EQUISat 1 43552U 98067PA 20324.75855845 .00134108 17790-4 41892-3 0 9999 2 43552 51.6257 203.9218 0002344 193.9774 166.1168 15.91284487134764 UiTMSat 1 1 43589U 98067PD 20323.90765564 .03098131 12035-4 82347-3 0 9998 2 43589 51.6179 197.8592 0007801 239.0542 120.9713 16.27521243130495 Maya 1 1 43590U 98067PE 20323.90069543 .02768244 12011-4 80133-3 0 9997 2 43590 51.6142 197.7214 0007861 239.4265 120.5981 16.26566705130426 SiriusSat 1 1 43595U 98067PG 20324.89864193 .00248899 35997-4 56251-3 0 9994 2 43595 51.6215 203.8347 0005518 202.9381 157.1378 15.97106667129629 SiriusSat 2 1 43596U 98067PH 20324.84428503 .00251737 36548-4 57179-3 0 9999 2 43596 51.6155 205.0203 0002614 205.3115 154.7796 15.97036132129608 SurfSat 1 43614U 18070B 20323.97172122 .00004227 00000-0 10531-3 0 9993 2 43614 93.0289 218.5960 0017805 97.7089 262.6188 15.40115963122253 CP-7 DAVE 1 43615U 18070C 20324.14984465 .00004067 00000-0 10197-3 0 9995 2 43615 93.0291 218.6499 0017967 96.9481 263.3818 15.39919337122276 ELFIN-B 1 43616U 18070D 20323.97219570 .00005610 00000-0 13246-3 0 9997 2 43616 93.0249 218.5805 0018218 97.5640 262.7686 15.41709742122315 ELFIN-A 1 43617U 18070E 20323.98304114 .00006602 00000-0 15450-3 0 9999 2 43617 93.0304 219.2308 0017680 94.6686 265.6590 15.41981863122327 STARS-Me Mother 1 43640U 98067PQ 20324.05103178 .00030422 00000-0 23951-3 0 9997 2 43640 51.6335 241.4541 0002003 224.7276 135.3561 15.71186202120985 CubeBel 1 1 43666U 18083E 20324.76857373 .00001297 00000-0 65902-4 0 9997 2 43666 97.4771 349.6292 0014889 173.3490 308.5845 15.18585283114188 Changshagaoxin 1 43669U 18083H 20324.86554691 .00001300 00000-0 68038-4 0 9996 2 43669 97.4656 347.4420 0010968 164.7621 319.4793 15.17549700114092 Ten-Koh 1 43677U 18084G 20324.78714585 .00000155 00000-0 21758-4 0 9992 2 43677 97.8997 81.6332 0016181 11.3755 348.7825 14.90347077112070 PO-101 1 43678U 18084H 20324.83422379 .00000336 00000-0 39183-4 0 9998 2 43678 97.9017 83.3933 0010631 31.1716 329.0145 14.91672744112184 IRVINE 01 1 43693U 18088D 20324.46697748 .00003629 00000-0 14899-3 0 9996 2 43693 85.0331 334.3522 0019915 81.9213 278.4288 15.23656684112445 QO-100 1 43700U 18090A 20324.15882826 .00000140 00000-0 00000-0 0 9998 2 43700 000.0139 290.0624 0001523 322.0565 249.5313 01.00273175007264 Reaktor Hello World 1 43743U 18096AA 20324.15131765 .00001911 00000-0 72869-4 0 9993 2 43743 97.4082 37.1601 0016271 304.1371 55.8324 15.27827703110019 MinXSS-2 1 43758U 18099A 20324.73774965 .00000751 00000-0 72314-4 0 9997 2 43758 97.6921 34.0296 0016152 35.3914 324.8376 14.95792471107164 AO-95 1 43770U 18099N 20324.45044745 .00000122 00000-0 16334-4 0 9998 2 43770 97.6911 33.0091 0015430 43.9622 316.2823 14.95097259107072 RANGE-B 1 43772U 18099Q 20324.71719757 .00000238 00000-0 26788-4 0 9993 2 43772 97.6986 33.9670 0014715 30.9621 329.2464 14.95325111107119 RANGE-A 1 43773U 18099R 20324.44461304 -.00000071 00000-0 -12760-5 0 9999 2 43773 97.6851 32.5205 0014231 32.2560 327.9529 14.95048422107068 MOVE-II 1 43780U 18099Y 20324.75563060 .00000960 00000-0 91552-4 0 9993 2 43780 97.6922 33.6332 0014345 41.4652 318.7655 14.95572500107122 SNUSat 2 1 43782U 18099AA 20324.78587732 .00000088 00000-0 13098-4 0 9990 2 43782 97.6908 33.6056 0013311 30.6372 329.5624 14.95356002107136 SnugLite 1 43784U 18099AC 20324.27527466 .00000538 00000-0 53709-4 0 9997 2 43784 97.6860 32.8837 0015796 37.9072 322.3236 14.95462000107078 ITASat 1 1 43786U 18099AE 20324.14528816 .00000788 00000-0 76332-4 0 9999 2 43786 097.6928 033.2398 0015980 039.0894 321.1478 14.95422029107052 EAGLET 1 1 43790U 18099AJ 20324.76693612 .00000188 00000-0 21990-4 0 9993 2 43790 97.6920 34.1734 0014472 41.2277 319.0034 14.95805872106861 ESEO 1 43792U 18099AL 20324.79073775 -.00000020 00000-0 33395-5 0 9999 2 43792 97.6885 33.9368 0014077 38.0634 322.1579 14.95644109106925 CSIM 1 43793U 18099AM 20324.78279565 .00000320 00000-0 33403-4 0 9995 2 43793 97.6896 34.0326 0013498 34.9952 325.2154 14.96226102106910 Astrocast 0.1 1 43798U 18099AS 20324.74029357 .00000715 00000-0 68865-4 0 9996 2 43798 97.6917 34.2798 0012732 22.7085 337.4697 14.95955388107165 JO-97 1 43803U 18099AX 20324.74272903 .00000859 00000-0 82351-4 0 9995 2 43803 97.6889 33.6107 0015848 37.4234 322.8088 14.95620908107144 Suomi 100 1 43804U 18099AY 20324.74496352 .00000865 00000-0 82879-4 0 9994 2 43804 97.6887 33.5939 0015942 37.4769 322.7560 14.95604629107150 Al Farabi 2 1 43805U 18099AZ 20324.17024315 .00000673 00000-0 65432-4 0 9991 2 43805 97.6908 33.1628 0016160 39.5059 320.7342 14.95759626107079 PWSat 2 1 43814U 18099BJ 20324.44389930 .00068489 00000-0 28031-2 0 9999 2 43814 97.7927 49.4095 0002833 288.3717 71.7210 15.24045331107213 CHOMPTT 1 43855U 18104G 20324.02841803 .00001850 00000-0 76095-4 0 9991 2 43855 85.0384 72.9069 0016717 195.6425 164.4304 15.23282665107057 ISAT 1 43879U 18111D 20324.71098368 .00001167 00000-0 10796-3 0 9997 2 43879 97.6932 229.5528 0014861 84.6070 275.6842 14.96374795101682 UWE-4 1 43880U 18111E 20324.73271795 .00000263 00000-0 28161-4 0 9990 2 43880 97.6941 229.9286 0013572 86.1862 274.0911 14.96608866101716 Sparrow 1 43881U 18111F 20324.71058473 .00000378 00000-0 38112-4 0 9999 2 43881 97.6956 230.0016 0014129 83.6601 276.6230 14.96659246101719 Lume 1 1 43908U 18111AJ 20324.34264452 .00001857 00000-0 75949-4 0 9996 2 43908 97.2503 219.5934 0019958 319.6177 40.3579 15.25403512105632 FO-98 1 43933U 19003B 20324.13259797 .00001039 00000-0 47758-4 0 9997 2 43933 97.2107 7.7940 0019228 59.9527 300.3614 15.22354664102060 FO-99 1 43937U 19003F 20324.12815409 .00001859 00000-0 77138-4 0 9993 2 43937 97.2071 9.4876 0024841 40.9877 319.3223 15.24799580102200 Delphini 1 1 44030U 98067PW 20324.81178022 .00057465 00000-0 37567-3 0 9999 2 44030 51.6310 242.0045 0000778 86.4817 273.6271 15.75251045102918 MYSat 1 1 44045U 18092F 20323.86554272 .00004272 00000-0 12411-3 0 9993 2 44045 51.6399 12.0833 0010945 160.1967 199.9443 15.37645898 99034 AstroCast 0.2 1 44083U 19018F 20324.67475870 .00001036 00000-0 48570-4 0 9991 2 44083 97.4028 23.4298 0012795 355.5827 4.5294 15.21859256 90982 AISTechSat 3 1 44103U 19018AB 20324.73058797 .00001242 00000-0 54984-4 0 9991 2 44103 97.3905 23.7515 0013719 8.7856 109.1240 15.23443048 91073 AISat 1 1 44104U 19018AC 20324.44470382 .00001228 00000-0 41151-4 0 9994 2 44104 97.4490 34.9791 0058323 23.8706 336.5219 15.31368091 91521 Raavana-1 1 44329U 98067QE 20324.13940159 .00023827 00000-0 27282-3 0 9991 2 44329 51.6386 276.7993 0004051 203.2917 156.7894 15.61990058 81148 Uguisu 1 44330U 98067QF 20324.35424853 .00023136 00000-0 26641-3 0 9996 2 44330 51.6361 275.9427 0004034 203.5747 156.5062 15.61862984 81153 NepaliSat-1 1 44331U 98067QG 20324.57831007 .00021198 00000-0 24322-3 0 9994 2 44331 51.6362 274.4409 0004026 207.9488 152.1291 15.62015559 81201 Prox-1 1 44339U 19036A 20324.06110861 .00001049 00000-0 19846-3 0 9991 2 44339 23.9993 218.9080 0010570 43.4533 316.6790 14.53218659 74628 Oculus-ASR 1 44348U 19036K 20324.02671734 .00022044 00000-0 32169-3 0 9999 2 44348 028.5149 087.5053 0355205 159.9413 201.5530 15.05577198077091 Armadillo 1 44352U 19036P 20324.62607299 .00031403 00000-0 44691-3 0 9997 2 44352 28.5310 74.3756 0337051 180.0807 179.9765 15.09800506 77220 NO-104 1 44354U 19036R 20324.64246001 .00021469 00000-0 30681-3 0 9996 2 44354 28.5301 79.2598 0351260 171.8525 188.7960 15.06791350 77210 NO-103 1 44355U 19036S 20323.96222341 .00043522 00000-0 57119-3 0 9991 2 44355 28.5305 64.8521 0317641 195.2457 163.8373 15.15391974 77300 CP9 1 44360U 19036X 20324.51237630 .00068903 -54338-5 70451-3 0 9999 2 44360 28.5151 32.8755 0283053 248.4898 108.5299 15.26981734 77548 Move-IIb 1 44398U 19038N 20324.42808852 .00002281 00000-0 13308-3 0 9998 2 44398 97.5550 283.8790 0024081 317.5435 42.3933 15.12752790 76007 SONATE 1 44400U 19038Q 20324.44356690 .00000703 00000-0 44368-4 0 9990 2 44400 97.5603 283.8895 0023991 315.9096 44.0217 15.12142038 75999 BeeSat 9 1 44412U 19038AC 20323.88879440 .00001628 00000-0 96601-4 0 9997 2 44412 97.5595 283.4842 0021638 323.3739 36.6011 15.12600683 75616 JAISAT-1 1 44419U 19038F 20323.85972809 .00001589 00000-0 93176-4 0 9994 2 44419 97.5599 283.8375 0020426 322.4436 37.5367 15.13085145 75941 LightSail-2 1 44420U 19036AC 20324.38207846 .00005605 00000-0 11674-2 0 9999 2 44420 24.0063 207.7531 0009555 49.7611 310.3716 14.57307627 72910 Taurus 1 1 44530U 19059C 20324.70464023 .00001008 00000-0 29682-3 0 9996 2 44530 98.5630 47.2494 0014801 60.5013 299.7667 14.45760990 62771 Duchifat 3 1 44854U 19089C 20324.15293766 .00000644 00000-0 58264-4 0 9995 2 44854 36.9672 264.0344 0009094 240.0844 119.8995 14.99201086 51522 OPS-SAT 1 44878U 19092F 20324.45419948 .00001707 00000-0 92648-4 0 9995 2 44878 97.4695 145.1663 0014028 173.2379 186.9045 15.15811046 51018 TO-108 1 44881U 19093C 20324.67728362 -.00000138 00000-0 -10812-4 0 9999 2 44881 97.9461 39.5699 0013462 252.2701 107.7047 14.81407927 49674 FloripaSat 1 1 44885U 19093G 20324.67436149 .00000408 00000-0 57924-4 0 9995 2 44885 97.9466 39.8705 0013446 262.9997 96.9687 14.82121851 49692 RS-44 1 44909U 19096E 20324.08142299 .00000029 00000-0 77181-4 0 9996 2 44909 82.5224 252.5567 0216489 224.8162 133.5277 12.79708007 41967 SwampSat-2 1 45115U 19071E 20324.29876904 .00022951 00000-0 58824-3 0 9999 2 45115 51.6410 330.6588 0010017 263.7310 96.2533 15.39217180 44934 HO-107 1 45119U 19071J 20324.07242060 .00002600 00000-0 88473-4 0 9992 2 45119 51.6426 335.8283 0011343 250.9616 109.0138 15.34231266 44855 Phoenix 1 45258U 98067RB 20323.96628016 .00008180 00000-0 13847-3 0 9995 2 45258 51.6412 298.8924 0005444 185.0394 175.0543 15.52496107 42465 AztechSat-1 1 45261U 98067RE 20324.15704881 .00017664 00000-0 26449-3 0 9995 2 45261 51.6404 295.6788 0006059 203.1928 156.8791 15.55035458 42543 QARMAN 1 45263U 98067RG 20324.14951048 .00014443 00000-0 22740-3 0 9997 2 45263 51.6409 297.1250 0005912 199.9886 160.0873 15.53823825 42564 Quetzal 1 1 45598U 98067RL 20324.83192480 .00012552 00000-0 20649-3 0 9996 2 45598 51.6417 295.6866 0001951 328.4079 31.6794 15.52749972 31913 BY70-2 1 45857U 20042B 20324.73219276 .00001283 00000-0 19161-3 0 9990 2 45857 98.0035 36.5589 0012077 163.5381 196.6222 14.76448088 20590 UPMSat 2 1 46276U 20061E 20324.16849286 .00000689 00000-0 39157-4 0 9991 2 46276 97.4565 35.9405 0002315 54.2840 305.8608 15.16126317 11671 AmicalSat 1 46287U 20061R 20324.14778416 .00001037 00000-0 67588-4 0 9994 2 46287 97.5116 35.8074 0004313 97.9711 262.2008 15.10044225 11602 SALSAT 1 46495U 20068K 20324.26754532 .00000151 00000-0 15670-4 0 9999 2 46495 097.6735 257.2811 0019103 064.4013 295.9179 15.03256260007756 Bobcat-1 1 46921U 98067RR 20324.14759426 .00008383 00000-0 15287-3 0 9999 2 46921 051.6436 301.6061 0002919 030.0649 330.0508 15.50342909002198 SPOC 1 46922U 98067RS 20324.14758138 .00011957 00000-0 21425-3 0 9991 2 46922 051.6437 301.6062 0002771 033.3213 326.7950 15.50386295002155 /EX
